International Falls, MN

1:52 AM CDT on October 17, 2017 (GMT -0500)
Falls International

Weather History for KINL - February, 2013

Change the Weather History Date:

Saturday, February 16, 2013

  Actual Average Record
Temperature  
Mean Temperature -7 °F 11 °F  
Max Temperature 13 °F 22 °F 48 °F (1981)
Min Temperature -28 °F -1 °F -42 °F (1973)
Degree Days  
Heating Degree Days 72 54  
Month to date heating degree days 959 910  
Since 1 July heating degree days 6921 6963  
Cooling Degree Days 0 0  
Month to date cooling degree days 0 0  
Year to date cooling degree days 0 0  
Moisture  
Dew Point -15 °F    
Average Humidity 77    
Maximum Humidity 95    
Minimum Humidity 58    
Precipitation  
Precipitation T in 0.02 in 0.25 in (1956)
Month to date precipitation 0.90 0.29  
Year to date precipitation 3.05 0.91  
Snow  
Snow T in 0.40 in 2.80 in (2009)
Month to date snowfall 12.2 6.1  
Since 1 July snowfall 61.7 52.1  
Snow Depth 0.00 in    
Sea Level Pressure  
Sea Level Pressure 30.19 in    
Wind  
Wind Speed 3 mph (ESE)    
Max Wind Speed 9 mph    
Max Gust Speed 10 mph    
Visibility 7 miles    
Events Fog    
T = Trace of Precipitation, MM = Missing Value Source: NWS Daily Summary

Daily Weather History Graph

Daily Weather History Graph

Search for Another Location

Airport or City:

Trip Planner

Search our weather history database for the weather conditions in past years. The results will help you decide how hot, cold, wet, or windy it might be!

Date:

Astronomy

Feb. 16, 2013 Rise Set
Actual Time 7:18 AM CST 5:37 PM CST
Civil Twilight 6:46 AM CST 6:09 PM CST
Nautical Twilight 6:09 AM CST 6:46 PM CST
Astronomical Twilight 5:33 AM CST 7:22 PM CST
Moon 9:56 AM CST (2/16) 12:11 AM CST (2/16)
Length of Visible Light 11h 22m
Length of Day
10h 18m
Waxing Crescent, 39% of the Moon is Illuminated
Feb 16
Waxing Crescent
Feb 17
First Quarter
Feb 25
Full
Mar 4
Last Quarter
Mar 11
New

Hourly Weather History & Observations

Time (CST) Temp. Windchill Dew Point Humidity Pressure Visibility Wind Dir Wind Speed Gust Speed Precip Events Conditions
12:55 AM -14.1 °F - -18.0 °F 82% 30.27 in 10.0 mi Calm Calm - N/A   Clear
1:55 AM -14.1 °F - -18.0 °F 82% 30.26 in 10.0 mi Calm Calm - N/A   Clear
2:44 AM -18.4 °F - -25.6 °F 70% 30.13 in 5.0 mi Calm Calm - N/A   Haze
2:55 AM -20.0 °F - -24.0 °F 82% 30.25 in 5.0 mi Calm Calm - N/A   Partly Cloudy
3:55 AM -23.1 °F - -29.9 °F 70% 30.26 in 2.5 mi Calm Calm - N/A   Haze
4:02 AM -22.0 °F - -27.4 °F 76% 30.13 in 4.0 mi Calm Calm - N/A   Haze
4:34 AM -23.8 °F - -27.4 °F 83% 30.13 in 1.5 mi Calm Calm - N/A   Clear
4:55 AM -22.0 °F - -26.0 °F 82% 30.25 in 2.0 mi Calm Calm - N/A   Clear
5:06 AM -23.8 °F - -29.2 °F 76% 30.13 in 1.2 mi Calm Calm - N/A   Haze
5:11 AM -20.2 °F - -27.4 °F 69% 30.13 in 3.0 mi Calm Calm - N/A   Haze
5:40 AM -27.4 °F - -32.8 °F 75% 30.13 in 10.0 mi Calm Calm - N/A   Scattered Clouds
5:55 AM -24.0 °F -35.2 °F -27.9 °F 82% 30.26 in 10.0 mi SE 3.5 mph - N/A   Mostly Cloudy
6:37 AM -20.2 °F - -20.2 °F 100% 30.14 in 1.5 mi Calm Calm - N/A   Overcast
6:46 AM -20.2 °F - -23.8 °F 83% 30.14 in 0.5 mi Calm Calm - N/A Fog Light Freezing Fog
6:55 AM -20.0 °F - -23.1 °F 86% 30.26 in 0.5 mi Calm Calm - N/A Fog Light Freezing Fog
7:11 AM -23.8 °F - -25.6 °F 91% 30.14 in 0.2 mi Calm Calm - N/A Fog Light Freezing Fog
7:28 AM -20.2 °F - -25.6 °F 76% 30.13 in 0.2 mi Calm Calm - N/A   Haze
7:39 AM -20.2 °F - -23.8 °F 83% 30.13 in 1.0 mi Calm Calm - N/A   Mist
7:55 AM -22.0 °F - -25.1 °F 86% 30.27 in 0.5 mi Calm Calm - N/A Fog Light Freezing Fog
8:06 AM -18.4 °F - -20.2 °F 91% 30.14 in 0.2 mi Calm Calm - N/A Fog Light Freezing Fog
8:31 AM -16.6 °F -26.8 °F -20.2 °F 84% 30.13 in 1.0 mi ESE 3.5 mph - N/A   Mist
8:35 AM -16.6 °F -26.8 °F -18.4 °F 92% 30.13 in 3.0 mi ESE 3.5 mph - N/A   Overcast
8:55 AM -14.1 °F -26.3 °F -17.0 °F 87% 30.26 in 10.0 mi ESE 4.6 mph - N/A   Overcast
9:25 AM -9.4 °F -18.6 °F -11.2 °F 92% 30.14 in 10.0 mi SE 3.5 mph - N/A   Scattered Clouds
9:55 AM -5.1 °F -13.6 °F -8.0 °F 87% 30.25 in 10.0 mi SE 3.5 mph - N/A   Clear
10:55 AM 1.9 °F - -0.9 °F 88% 30.24 in 10.0 mi Calm Calm - N/A   Clear
11:55 AM 7.0 °F 0.1 °F -2.0 °F 67% 30.23 in 10.0 mi SE 3.5 mph - N/A   Clear
12:55 PM 10.0 °F 3.6 °F -0.9 °F 61% 30.23 in 10.0 mi ESE 3.5 mph - N/A   Clear
1:55 PM 12.9 °F 6.9 °F -0.0 °F 56% 30.22 in 10.0 mi Variable 3.5 mph - N/A   Clear
2:55 PM 12.0 °F 1.5 °F -0.9 °F 56% 30.20 in 10.0 mi NE 6.9 mph - N/A   Clear
3:55 PM 12.9 °F 2.6 °F -0.9 °F 54% 30.18 in 10.0 mi NNE 6.9 mph - N/A   Clear
4:55 PM 12.0 °F 4.1 °F -0.9 °F 56% 30.18 in 10.0 mi NNE 4.6 mph - N/A   Clear
5:55 PM 3.9 °F - -5.1 °F 66% 30.20 in 10.0 mi Calm Calm - N/A   Clear
6:55 PM -2.9 °F - -7.1 °F 82% 30.20 in 10.0 mi Calm Calm - N/A   Clear
7:55 PM -0.0 °F -13.0 °F -6.0 °F 76% 30.19 in 10.0 mi ESE 6.9 mph - N/A   Clear
8:55 PM -0.9 °F -12.7 °F -6.0 °F 79% 30.16 in 10.0 mi ESE 5.8 mph - N/A   Clear
9:55 PM -2.0 °F -13.9 °F -7.1 °F 79% 30.14 in 10.0 mi ESE 5.8 mph - N/A   Clear
10:55 PM -2.0 °F -12.2 °F -7.1 °F 79% 30.12 in 10.0 mi SE 4.6 mph - N/A   Clear
11:55 PM -4.0 °F -16.3 °F -8.0 °F 83% 30.09 in 10.0 mi SE 5.8 mph - N/A   Clear